ATLAS 5 CENTAUR DEB, 44660

Orbit data source: Space-Track

ATLAS 5 CENTAUR DEB, 44660 is space debris in HEO originally from a launch on Wed, 17 Oct 2018 UTC launched from the Air Force Eastern Test Range (AFETR). Debris objects in space refer to the collection of defunct objects orbiting the Earth. Examples of debris include non-operational satellites, rocket bodies, and fragments generated from explosions, collisions, or faulty payload assembly.

Loading next visibility...
Identifier
44660, 2018-079W
Orbit
HEO
Country
Flag of USUS
Related business
Flag of USUnited Launch Alliance/Lockheed Martin (US)
Manufacturer
ULA Decatur
Mission
Spacecraft
Bus & Motor
Unknown
Mass
Unknown
Launch date (UTC)
2018-10-17 (8 years ago)
Launch vehicle
Unknown
Launch site
Air Force Eastern Test Range (AFETR)
Object type
Payload
Rocket body
Debris
Shape & HBR
Unknown shape, 1.1 m
Radar Cross Section
RCS unknown

Expand to show TLE details & history
Last TLE update: 7 months ago

TLE from 7 months ago
0 ATLAS 5 CENTAUR DEB
1 44660U 18079W   25326.30417619 -.00000094  00000-0  00000-0 0  9998
2 44660  12.9023  40.4823 4824392 315.9080  14.5411  1.84826058 28567
Epoch: 2025-11-22T07:18Z
TLE epoch observation values (Epoch: 2025-11-22T07:18:00.822Z)
Latitude
-0.00003°
Longitude
-130.63081°
Altitude
9,615.613 km
Speed
5.969 km/s
True Right ascension
02h 41m 37s
True Declination
0° 00' 00"
Sunlit
Object was in daylight at epoch
Visualization orbit readout
Latitude
Unknown
Longitude
Unknown
Altitude
Unknown
Speed
Unknown
Apparent Right ascension
Unknown
Apparent Declination
Unknown
Sunlit
N/A
Visualization observer readout
Local Sidereal Time
21:40:17
Azimuth
Unknown
Elevation
Unknown
Doppler factor
Unknown
Orbital elements
Apogee altitude
35,203.7 km
Perigee altitude
8,139.24 km
Semi-major axis
28,049.607 km
Eccentricity
0.48244
Inclination
12.9023°
RAAN
40.4823°
Arg. of periapsis
315.908°
True anomaly
44.46792°
Mean anomaly
14.5411°
Eccentric anomaly
27.15809°
Mean motion
0.46201 °/min
Orbital period
779.2 mins
BSTAR
0
Loading maneuver chart data...
Computing Atmospheric mass density...

Documentation

Showing up to 5 results
|